When you browse on this site, cookies collect data to enhance your experience and personalize the content and advertising you see.
Visit our Privacy Policy to learn more. By continuing to use the site, you agree to this use of cookies and data.

Hourly Weather Oaxaca

Today, 5 August, Wednesday

Time Temperature Precipitation Wind Pressure Humidity
00:00 +20°C° 0 mm 1 mps 634 mmHg 93%
01:00 +19°C° 0 mm 1 mps 634 mmHg 93%
02:00 +19°C° 0 mm 1 mps 633 mmHg 93%
03:00 +19°C° 0 mm 1 mps 633 mmHg 93%
04:00 +18°C° 0 mm 1 mps 633 mmHg 92%
05:00 +18°C° 0 mm 1 mps 633 mmHg 92%
06:00 +18°C° 0 mm 1 mps 632 mmHg 91%
07:00 +20°C° 0 mm 1 mps 633 mmHg 84%
08:00 +21°C° 0 mm 1 mps 634 mmHg 77%
09:00 +23°C° 0 mm 1 mps 635 mmHg 71%
10:00 +25°C° 0 mm 1 mps 636 mmHg 63%
11:00 +26°C° 0 mm 1 mps 636 mmHg 56%
12:00 +28°C° 0 mm 1 mps 636 mmHg 49%
13:00 +28°C° 0.1 mm 1 mps 636 mmHg 50%
14:00 +28°C° 0.1 mm 2 mps 635 mmHg 51%
15:00 +28°C° 0.1 mm 2 mps 635 mmHg 52%
16:00 +27°C° 0.9 mm 2 mps 634 mmHg 61%
17:00 +26°C° 0.9 mm 2 mps 634 mmHg 69%
18:00 +25°C° 0.9 mm 2 mps 633 mmHg 77%
19:00 +23°C° 0.9 mm 2 mps 633 mmHg 81%
20:00 +22°C° 0.9 mm 1 mps 633 mmHg 86%
21:00 +20°C° 0.9 mm 1 mps 633 mmHg 91%
22:00 +20°C° 0 mm 1 mps 633 mmHg 91%
23:00 +19°C° 0 mm 1 mps 633 mmHg 91%

Tomorrow, 6 August, Thursday

Time Temperature Precipitation Wind Pressure Humidity
00:00 +19°C° 0 mm 1 mps 633 mmHg 91%
01:00 +18°C° 0 mm 1 mps 632 mmHg 91%
02:00 +18°C° 0 mm 1 mps 632 mmHg 91%
03:00 +18°C° 0 mm 1 mps 632 mmHg 92%
04:00 +16°C° 0 mm 1 mps 631 mmHg 91%
05:00 +16°C° 0 mm 1 mps 631 mmHg 90%
06:00 +16°C° 0 mm 1 mps 631 mmHg 90%
07:00 +19°C° 0 mm 1 mps 632 mmHg 82%
08:00 +21°C° 0 mm 1 mps 633 mmHg 75%
09:00 +23°C° 0 mm 1 mps 634 mmHg 67%
10:00 +24°C° 0.2 mm 1 mps 635 mmHg 65%
11:00 +25°C° 0.2 mm 1 mps 635 mmHg 63%
12:00 +26°C° 0.2 mm 1 mps 635 mmHg 60%
13:00 +26°C° 1.5 mm 1 mps 634 mmHg 64%
14:00 +26°C° 1.5 mm 1 mps 634 mmHg 67%
15:00 +26°C° 1.5 mm 1 mps 633 mmHg 70%
16:00 +25°C° 1.5 mm 1 mps 633 mmHg 74%
17:00 +24°C° 1.5 mm 1 mps 632 mmHg 79%
18:00 +24°C° 1.5 mm 1 mps 632 mmHg 84%
19:00 +23°C° 0.6 mm 1 mps 633 mmHg 86%
20:00 +22°C° 0.6 mm 1 mps 633 mmHg 88%
21:00 +21°C° 0.6 mm 1 mps 633 mmHg 90%
22:00 +20°C° 0.2 mm 1 mps 633 mmHg 91%
23:00 +20°C° 0.2 mm 1 mps 633 mmHg 92%

Day after tomorrow, 7 August, Friday

Time Temperature Precipitation Wind Pressure Humidity
00:00 +18°C° 0.2 mm 2 mps 633 mmHg 93%
01:00 +18°C° 0 mm 2 mps 632 mmHg 94%
02:00 +19°C° 0 mm 1 mps 632 mmHg 94%
03:00 +18°C° 0 mm 1 mps 632 mmHg 94%
04:00 +18°C° 0 mm 1 mps 632 mmHg 94%
05:00 +18°C° 0 mm 1 mps 632 mmHg 94%
06:00 +18°C° 0 mm 1 mps 632 mmHg 94%
07:00 +19°C° 0 mm 1 mps 633 mmHg 89%
08:00 +21°C° 0 mm 1 mps 633 mmHg 84%
09:00 +22°C° 0 mm 1 mps 634 mmHg 79%
10:00 +23°C° 0.2 mm 1 mps 634 mmHg 75%
11:00 +24°C° 0.2 mm 1 mps 634 mmHg 71%
12:00 +25°C° 0.2 mm 1 mps 634 mmHg 67%
13:00 +26°C° 0.8 mm 1 mps 634 mmHg 67%
14:00 +26°C° 0.8 mm 1 mps 633 mmHg 67%
15:00 +26°C° 0.8 mm 2 mps 633 mmHg 68%
16:00 +25°C° 1.3 mm 2 mps 633 mmHg 73%
17:00 +24°C° 1.3 mm 2 mps 633 mmHg 78%
18:00 +23°C° 1.3 mm 2 mps 633 mmHg 83%
19:00 +21°C° 0.6 mm 2 mps 633 mmHg 86%
20:00 +20°C° 0.6 mm 2 mps 633 mmHg 89%
21:00 +21°C° 0.6 mm 1 mps 634 mmHg 92%
22:00 +20°C° 0.1 mm 1 mps 634 mmHg 92%
23:00 +19°C° 0.1 mm 1 mps 634 mmHg 92%

8 August, Saturday

Time Temperature Precipitation Wind Pressure Humidity
00:00 +19°C° 0.1 mm 1 mps 634 mmHg 93%
01:00 +19°C° 0 mm 1 mps 634 mmHg 92%
02:00 +19°C° 0 mm 1 mps 633 mmHg 92%
03:00 +19°C° 0 mm 1 mps 633 mmHg 92%
04:00 +19°C° 0 mm 1 mps 633 mmHg 92%
05:00 +19°C° 0 mm 1 mps 633 mmHg 92%
06:00 +18°C° 0 mm 1 mps 633 mmHg 92%
07:00 +19°C° 0 mm 1 mps 634 mmHg 88%
08:00 +21°C° 0 mm 1 mps 634 mmHg 84%
09:00 +22°C° 0 mm 1 mps 635 mmHg 80%
10:00 +23°C° 0.2 mm 1 mps 635 mmHg 77%
11:00 +24°C° 0.2 mm 1 mps 635 mmHg 74%
12:00 +25°C° 0.2 mm 1 mps 636 mmHg 71%
13:00 +25°C° 0.7 mm 2 mps 635 mmHg 70%
14:00 +25°C° 0.7 mm 2 mps 635 mmHg 69%
15:00 +25°C° 0.7 mm 2 mps 634 mmHg 68%
16:00 +25°C° 0.6 mm 2 mps 634 mmHg 71%
17:00 +24°C° 0.6 mm 2 mps 634 mmHg 75%
18:00 +23°C° 0.6 mm 2 mps 634 mmHg 78%
19:00 +21°C° 0.2 mm 2 mps 634 mmHg 83%
20:00 +20°C° 0.2 mm 2 mps 634 mmHg 87%
21:00 +18°C° 0.2 mm 2 mps 634 mmHg 92%
22:00 +18°C° 0.1 mm 2 mps 634 mmHg 92%
23:00 +18°C° 0.1 mm 2 mps 635 mmHg 92%

9 August, Sunday

Time Temperature Precipitation Wind Pressure Humidity
00:00 +19°C° 0.1 mm 1 mps 635 mmHg 91%
01:00 +19°C° 0.1 mm 1 mps 635 mmHg 92%
02:00 +19°C° 0.1 mm 1 mps 634 mmHg 92%
03:00 +19°C° 0.1 mm 1 mps 634 mmHg 92%
04:00 +19°C° 0.1 mm 1 mps 634 mmHg 92%
05:00 +18°C° 0.1 mm 1 mps 633 mmHg 91%
06:00 +18°C° 0.1 mm 1 mps 633 mmHg 91%
07:00 +20°C° 0 mm 1 mps 634 mmHg 85%
08:00 +21°C° 0 mm 1 mps 635 mmHg 80%
09:00 +22°C° 0 mm 1 mps 635 mmHg 74%
10:00 +24°C° 0 mm 1 mps 636 mmHg 69%
11:00 +25°C° 0 mm 1 mps 636 mmHg 63%
12:00 +27°C° 0 mm 2 mps 636 mmHg 58%
13:00 +27°C° 0.4 mm 2 mps 636 mmHg 57%
14:00 +27°C° 0.4 mm 2 mps 635 mmHg 57%
15:00 +27°C° 0.4 mm 2 mps 634 mmHg 56%
16:00 +26°C° 0.2 mm 2 mps 634 mmHg 61%
17:00 +26°C° 0.2 mm 2 mps 634 mmHg 65%
18:00 +25°C° 0.2 mm 2 mps 634 mmHg 70%
19:00 +23°C° 0 mm 2 mps 634 mmHg 76%
20:00 +20°C° 0 mm 2 mps 634 mmHg 82%
21:00 +18°C° 0 mm 2 mps 634 mmHg 89%
22:00 +18°C° 0 mm 2 mps 634 mmHg 90%
23:00 +17°C° 0 mm 2 mps 634 mmHg 91%

10 August, Monday

Time Temperature Precipitation Wind Pressure Humidity
00:00 +17°C° 0 mm 2 mps 634 mmHg 92%
01:00 +16°C° 0 mm 2 mps 633 mmHg 91%
02:00 +16°C° 0 mm 2 mps 633 mmHg 91%
03:00 +16°C° 0 mm 2 mps 632 mmHg 90%
04:00 +16°C° 0 mm 2 mps 632 mmHg 90%
05:00 +16°C° 0 mm 2 mps 632 mmHg 89%
06:00 +16°C° 0 mm 2 mps 632 mmHg 88%
07:00 +17°C° 0 mm 2 mps 633 mmHg 83%
08:00 +18°C° 0 mm 2 mps 633 mmHg 79%
09:00 +20°C° 0 mm 2 mps 634 mmHg 74%
10:00 +21°C° 0 mm 2 mps 634 mmHg 70%
11:00 +24°C° 0 mm 2 mps 634 mmHg 67%
12:00 +26°C° 0 mm 2 mps 635 mmHg 63%
13:00 +26°C° 0.5 mm 2 mps 634 mmHg 63%
14:00 +26°C° 0.5 mm 2 mps 634 mmHg 63%
15:00 +27°C° 0.5 mm 2 mps 633 mmHg 63%
16:00 +26°C° 0.6 mm 2 mps 633 mmHg 68%
17:00 +25°C° 0.6 mm 2 mps 633 mmHg 72%
18:00 +24°C° 0.6 mm 2 mps 633 mmHg 76%
19:00 +22°C° 0.2 mm 1 mps 633 mmHg 81%
20:00 +21°C° 0.2 mm 1 mps 633 mmHg 86%
21:00 +20°C° 0.2 mm 1 mps 633 mmHg 91%
22:00 +20°C° 0.2 mm 1 mps 633 mmHg 92%
23:00 +20°C° 0.2 mm 1 mps 633 mmHg 92%
Show more